Time,TemperatureF,DewpointF,PressureIn,WindDirection,WindDirectionDegrees,WindSpeedMPH,WindSpeedGustMPH,Humidity,HourlyPrecipIn,Conditions,Clouds,dailyrainin,SoftwareType,DateUTC
2013-01-07 00:06:00,41.1,35.1,30.21,NE,55,0.0,4.0,79,0.00,,,0.00,Wunderground v.1.15,2013-01-07 05:06:00,
2013-01-07 00:11:00,41.0,35.3,30.21,NE,55,0.0,1.0,80,0.00,,,0.00,Wunderground v.1.15,2013-01-07 05:11:00,
2013-01-07 00:16:00,40.8,35.1,30.21,NE,55,1.0,1.0,80,0.00,,,0.00,Wunderground v.1.15,2013-01-07 05:16:00,
2013-01-07 00:21:00,40.6,34.9,30.21,NE,55,0.0,0.0,80,0.00,,,0.00,Wunderground v.1.15,2013-01-07 05:21:00,
2013-01-07 00:26:00,40.4,34.7,30.21,NE,55,0.0,0.0,80,0.00,,,0.00,Wunderground v.1.15,2013-01-07 05:26:00,
2013-01-07 00:33:00,40.1,34.7,30.21,NE,55,0.0,0.0,81,0.00,,,0.00,Wunderground v.1.15,2013-01-07 05:33:00,
2013-01-07 00:38:00,39.9,34.9,30.21,NE,55,0.0,2.0,82,0.00,,,0.00,Wunderground v.1.15,2013-01-07 05:38:00,
2013-01-07 00:43:00,39.7,34.7,30.20,NE,55,0.0,0.0,82,0.00,,,0.00,Wunderground v.1.15,2013-01-07 05:43:00,
2013-01-07 00:48:00,39.5,34.5,30.21,NE,55,0.0,0.0,82,0.00,,,0.00,Wunderground v.1.15,2013-01-07 05:48:00,
2013-01-07 00:55:00,39.2,34.2,30.21,NE,55,0.0,0.0,82,0.00,,,0.00,Wunderground v.1.15,2013-01-07 05:55:00,
2013-01-07 01:00:00,38.9,34.2,30.21,NE,55,0.0,0.0,83,0.00,,,0.00,Wunderground v.1.15,2013-01-07 06:00:00,
2013-01-07 01:04:00,38.5,33.8,30.21,NE,55,0.0,0.0,83,0.00,,,0.00,Wunderground v.1.15,2013-01-07 06:04:00,
2013-01-07 01:09:00,38.2,33.8,30.21,NE,55,0.0,0.0,84,0.00,,,0.00,Wunderground v.1.15,2013-01-07 06:09:00,
2013-01-07 01:15:00,37.9,33.5,30.21,NE,55,0.0,0.0,84,0.00,,,0.00,Wunderground v.1.15,2013-01-07 06:15:00,
2013-01-07 01:20:00,37.6,33.5,30.21,NE,55,0.0,0.0,85,0.00,,,0.00,Wunderground v.1.15,2013-01-07 06:20:00,
2013-01-07 01:25:00,37.4,33.3,30.21,NE,55,0.0,0.0,85,0.00,,,0.00,Wunderground v.1.15,2013-01-07 06:25:00,
2013-01-07 01:30:00,37.2,33.4,30.21,NE,55,0.0,0.0,86,0.00,,,0.00,Wunderground v.1.15,2013-01-07 06:30:00,
2013-01-07 01:35:00,37.0,33.2,30.20,NE,55,0.0,0.0,86,0.00,,,0.00,Wunderground v.1.15,2013-01-07 06:35:00,
2013-01-07 01:41:00,36.8,33.3,30.21,NE,55,0.0,0.0,87,0.00,,,0.00,Wunderground v.1.15,2013-01-07 06:41:00,
2013-01-07 01:46:00,36.5,33.0,30.21,NE,55,0.0,0.0,87,0.00,,,0.00,Wunderground v.1.15,2013-01-07 06:46:00,
2013-01-07 01:51:00,35.9,32.1,30.21,NE,55,0.0,0.0,86,0.00,,,0.00,Wunderground v.1.15,2013-01-07 06:51:00,
2013-01-07 01:56:00,35.4,31.9,30.21,NE,55,0.0,0.0,87,0.00,,,0.00,Wunderground v.1.15,2013-01-07 06:56:00,
2013-01-07 02:02:00,34.8,31.6,30.21,NE,55,0.0,0.0,88,0.00,,,0.00,Wunderground v.1.15,2013-01-07 07:02:00,
2013-01-07 02:07:00,34.4,31.5,30.21,NE,55,0.0,0.0,89,0.00,,,0.00,Wunderground v.1.15,2013-01-07 07:07:00,
2013-01-07 02:12:00,34.1,31.2,30.22,NE,55,0.0,0.0,89,0.00,,,0.00,Wunderground v.1.15,2013-01-07 07:12:00,
2013-01-07 02:17:00,33.9,31.0,30.22,NE,55,0.0,0.0,89,0.00,,,0.00,Wunderground v.1.15,2013-01-07 07:17:00,
2013-01-07 02:22:00,33.7,30.8,30.21,NE,55,0.0,0.0,89,0.00,,,0.00,Wunderground v.1.15,2013-01-07 07:22:00,
2013-01-07 02:27:00,33.4,30.8,30.21,NE,55,0.0,0.0,90,0.00,,,0.00,Wunderground v.1.15,2013-01-07 07:27:00,
2013-01-07 02:32:00,33.4,31.1,30.21,NE,55,0.0,0.0,91,0.00,,,0.00,Wunderground v.1.15,2013-01-07 07:32:00,
2013-01-07 02:37:00,33.7,31.6,30.21,NE,55,0.0,0.0,92,0.00,,,0.00,Wunderground v.1.15,2013-01-07 07:37:00,
2013-01-07 02:42:00,33.4,30.8,30.22,NE,55,0.0,0.0,90,0.00,,,0.00,Wunderground v.1.15,2013-01-07 07:42:00,
2013-01-07 02:47:00,33.2,30.9,30.21,NE,55,0.0,0.0,91,0.00,,,0.00,Wunderground v.1.15,2013-01-07 07:47:00,
2013-01-07 02:52:00,33.2,30.9,30.21,NE,55,0.0,0.0,91,0.00,,,0.00,Wunderground v.1.15,2013-01-07 07:52:00,
2013-01-07 02:57:00,33.0,30.7,30.21,NE,55,0.0,0.0,91,0.00,,,0.00,Wunderground v.1.15,2013-01-07 07:57:00,
2013-01-07 03:02:00,32.8,30.2,30.22,NE,55,0.0,0.0,90,0.00,,,0.00,Wunderground v.1.15,2013-01-07 08:02:00,
2013-01-07 03:07:00,32.6,30.3,30.21,NE,55,0.0,0.0,91,0.00,,,0.00,Wunderground v.1.15,2013-01-07 08:07:00,
2013-01-07 03:13:00,32.7,30.6,30.22,NE,55,0.0,0.0,92,0.00,,,0.00,Wunderground v.1.15,2013-01-07 08:13:00,
2013-01-07 03:18:00,32.5,30.2,30.22,NE,55,0.0,0.0,91,0.00,,,0.00,Wunderground v.1.15,2013-01-07 08:18:00,
2013-01-07 03:23:00,32.1,29.5,30.22,NE,55,0.0,0.0,90,0.00,,,0.00,Wunderground v.1.15,2013-01-07 08:23:00,
2013-01-07 03:28:00,32.1,30.0,30.22,NE,55,0.0,0.0,92,0.00,,,0.00,Wunderground v.1.15,2013-01-07 08:28:00,
2013-01-07 03:33:00,32.3,30.5,30.22,NE,55,0.0,0.0,93,0.00,,,0.00,Wunderground v.1.15,2013-01-07 08:33:00,
2013-01-07 03:38:00,32.5,30.4,30.23,NE,55,0.0,0.0,92,0.00,,,0.00,Wunderground v.1.15,2013-01-07 08:38:00,
2013-01-07 03:43:00,32.6,30.8,30.22,NE,55,0.0,0.0,93,0.00,,,0.00,Wunderground v.1.15,2013-01-07 08:43:00,
2013-01-07 03:48:00,33.1,31.6,30.23,NE,55,0.0,0.0,94,0.00,,,0.00,Wunderground v.1.15,2013-01-07 08:48:00,
2013-01-07 03:53:00,33.4,31.6,30.23,NE,55,0.0,0.0,93,0.00,,,0.00,Wunderground v.1.15,2013-01-07 08:53:00,
2013-01-07 03:58:00,33.6,31.8,30.22,NE,55,0.0,0.0,93,0.00,,,0.00,Wunderground v.1.15,2013-01-07 08:58:00,
2013-01-07 04:03:00,33.8,31.7,30.23,NE,55,0.0,0.0,92,0.00,,,0.00,Wunderground v.1.15,2013-01-07 09:03:00,
2013-01-07 04:08:00,33.3,30.7,30.23,NE,55,0.0,0.0,90,0.00,,,0.00,Wunderground v.1.15,2013-01-07 09:08:00,
2013-01-07 04:13:00,33.1,30.8,30.22,NE,55,0.0,0.0,91,0.00,,,0.00,Wunderground v.1.15,2013-01-07 09:13:00,
2013-01-07 04:18:00,33.1,31.0,30.23,NE,55,0.0,0.0,92,0.00,,,0.00,Wunderground v.1.15,2013-01-07 09:18:00,
2013-01-07 04:23:00,33.1,31.0,30.23,NE,55,0.0,0.0,92,0.00,,,0.00,Wunderground v.1.15,2013-01-07 09:23:00,
2013-01-07 04:28:00,33.0,30.9,30.23,NE,55,0.0,0.0,92,0.00,,,0.00,Wunderground v.1.15,2013-01-07 09:28:00,
2013-01-07 04:33:00,33.0,30.9,30.24,NE,55,0.0,0.0,92,0.00,,,0.00,Wunderground v.1.15,2013-01-07 09:33:00,
2013-01-07 04:38:00,33.1,31.3,30.23,NE,55,0.0,0.0,93,0.00,,,0.00,Wunderground v.1.15,2013-01-07 09:38:00,
2013-01-07 04:43:00,33.2,31.4,30.24,NE,55,0.0,0.0,93,0.00,,,0.00,Wunderground v.1.15,2013-01-07 09:43:00,
2013-01-07 04:48:00,33.2,31.1,30.24,NE,55,0.0,0.0,92,0.00,,,0.00,Wunderground v.1.15,2013-01-07 09:48:00,
2013-01-07 04:53:00,32.9,30.6,30.25,NE,55,0.0,0.0,91,0.00,,,0.00,Wunderground v.1.15,2013-01-07 09:53:00,
2013-01-07 04:58:00,32.8,30.5,30.24,NE,55,0.0,0.0,91,0.00,,,0.00,Wunderground v.1.15,2013-01-07 09:58:00,
2013-01-07 05:03:00,32.5,30.2,30.25,NE,55,0.0,0.0,91,0.00,,,0.00,Wunderground v.1.15,2013-01-07 10:03:00,
2013-01-07 05:08:00,32.3,30.2,30.25,NE,55,0.0,0.0,92,0.00,,,0.00,Wunderground v.1.15,2013-01-07 10:08:00,
2013-01-07 05:13:00,32.4,30.6,30.25,NE,55,0.0,0.0,93,0.00,,,0.00,Wunderground v.1.15,2013-01-07 10:13:00,
2013-01-07 05:18:00,32.4,30.6,30.26,NE,55,0.0,0.0,93,0.00,,,0.00,Wunderground v.1.15,2013-01-07 10:18:00,
2013-01-07 05:23:00,32.6,30.8,30.25,NE,55,0.0,0.0,93,0.00,,,0.00,Wunderground v.1.15,2013-01-07 10:23:00,
2013-01-07 05:28:00,32.5,30.4,30.26,NE,55,0.0,0.0,92,0.00,,,0.00,Wunderground v.1.15,2013-01-07 10:28:00,
2013-01-07 05:33:00,32.4,30.3,30.26,NE,55,0.0,0.0,92,0.00,,,0.00,Wunderground v.1.15,2013-01-07 10:33:00,
2013-01-07 05:38:00,32.3,30.5,30.26,NE,55,0.0,0.0,93,0.00,,,0.00,Wunderground v.1.15,2013-01-07 10:38:00,
2013-01-07 05:43:00,32.3,30.2,30.26,NE,55,0.0,0.0,92,0.00,,,0.00,Wunderground v.1.15,2013-01-07 10:43:00,
2013-01-07 05:48:00,32.3,30.5,30.26,NE,55,0.0,0.0,93,0.00,,,0.00,Wunderground v.1.15,2013-01-07 10:48:00,
2013-01-07 05:53:00,32.4,30.6,30.26,NE,55,0.0,0.0,93,0.00,,,0.00,Wunderground v.1.15,2013-01-07 10:53:00,
2013-01-07 05:58:00,32.6,30.8,30.26,NE,55,0.0,0.0,93,0.00,,,0.00,Wunderground v.1.15,2013-01-07 10:58:00,
2013-01-07 06:03:00,32.5,30.7,30.27,NE,55,0.0,0.0,93,0.00,,,0.00,Wunderground v.1.15,2013-01-07 11:03:00,
2013-01-07 06:08:00,32.3,30.2,30.27,NE,55,0.0,0.0,92,0.00,,,0.00,Wunderground v.1.15,2013-01-07 11:08:00,
2013-01-07 06:13:00,32.2,30.1,30.27,NE,55,0.0,0.0,92,0.00,,,0.00,Wunderground v.1.15,2013-01-07 11:13:00,
2013-01-07 06:18:00,32.3,30.5,30.28,NE,55,0.0,0.0,93,0.00,,,0.00,Wunderground v.1.15,2013-01-07 11:18:00,
2013-01-07 06:23:00,32.3,30.5,30.27,NE,55,0.0,0.0,93,0.00,,,0.00,Wunderground v.1.15,2013-01-07 11:23:00,
2013-01-07 06:28:00,32.4,30.6,30.28,NE,55,0.0,0.0,93,0.00,,,0.00,Wunderground v.1.15,2013-01-07 11:28:00,
2013-01-07 06:34:00,32.6,31.1,30.28,NE,55,0.0,0.0,94,0.00,,,0.00,Wunderground v.1.15,2013-01-07 11:34:00,
2013-01-07 06:39:00,32.8,31.0,30.28,NE,55,0.0,0.0,93,0.00,,,0.00,Wunderground v.1.15,2013-01-07 11:39:00,
2013-01-07 06:44:00,33.0,31.5,30.29,NE,55,0.0,0.0,94,0.00,,,0.00,Wunderground v.1.15,2013-01-07 11:44:00,
2013-01-07 06:49:00,33.0,31.2,30.29,NE,55,0.0,0.0,93,0.00,,,0.00,Wunderground v.1.15,2013-01-07 11:49:00,
2013-01-07 06:54:00,33.0,30.9,30.29,NE,55,0.0,0.0,92,0.00,,,0.00,Wunderground v.1.15,2013-01-07 11:54:00,
2013-01-07 06:58:00,32.9,30.8,30.29,NE,55,0.0,0.0,92,0.00,,,0.00,Wunderground v.1.15,2013-01-07 11:58:00,
2013-01-07 07:03:00,32.9,30.8,30.29,NE,55,0.0,0.0,92,0.00,,,0.00,Wunderground v.1.15,2013-01-07 12:03:00,
2013-01-07 07:09:00,32.8,30.7,30.29,NE,55,0.0,0.0,92,0.00,,,0.00,Wunderground v.1.15,2013-01-07 12:09:00,
2013-01-07 07:14:00,32.5,30.4,30.29,NE,55,0.0,0.0,92,0.00,,,0.00,Wunderground v.1.15,2013-01-07 12:14:00,
2013-01-07 07:19:00,32.2,29.9,30.29,NE,55,0.0,0.0,91,0.00,,,0.00,Wunderground v.1.15,2013-01-07 12:19:00,
2013-01-07 07:24:00,31.9,29.8,30.30,NE,55,0.0,0.0,92,0.00,,,0.00,Wunderground v.1.15,2013-01-07 12:24:00,
2013-01-07 07:29:00,31.7,29.6,30.30,NE,55,0.0,0.0,92,0.00,,,0.00,Wunderground v.1.15,2013-01-07 12:29:00,
2013-01-07 07:34:00,31.6,29.5,30.30,NE,55,0.0,0.0,92,0.00,,,0.00,Wunderground v.1.15,2013-01-07 12:34:00,
2013-01-07 07:39:00,31.5,29.4,30.30,NE,55,0.0,0.0,92,0.00,,,0.00,Wunderground v.1.15,2013-01-07 12:39:00,
2013-01-07 07:44:00,31.3,29.2,30.30,NE,55,0.0,0.0,92,0.00,,,0.00,Wunderground v.1.15,2013-01-07 12:44:00,
2013-01-07 07:49:00,31.2,29.4,30.31,NE,55,0.0,0.0,93,0.00,,,0.00,Wunderground v.1.15,2013-01-07 12:49:00,
2013-01-07 07:54:00,31.2,29.4,30.31,NE,55,0.0,0.0,93,0.00,,,0.00,Wunderground v.1.15,2013-01-07 12:54:00,
2013-01-07 07:59:00,31.2,29.4,30.31,NE,55,0.0,0.0,93,0.00,,,0.00,Wunderground v.1.15,2013-01-07 12:59:00,
2013-01-07 08:04:00,31.2,29.4,30.31,NE,55,0.0,0.0,93,0.00,,,0.00,Wunderground v.1.15,2013-01-07 13:04:00,
2013-01-07 08:09:00,31.1,29.3,30.31,NE,55,0.0,0.0,93,0.00,,,0.00,Wunderground v.1.15,2013-01-07 13:09:00,
2013-01-07 08:14:00,31.0,29.2,30.32,NE,55,0.0,0.0,93,0.00,,,0.00,Wunderground v.1.15,2013-01-07 13:14:00,
2013-01-07 08:19:00,30.9,29.1,30.32,NE,55,0.0,0.0,93,0.00,,,0.00,Wunderground v.1.15,2013-01-07 13:19:00,
2013-01-07 08:24:00,30.8,29.0,30.32,NE,55,0.0,0.0,93,0.00,,,0.00,Wunderground v.1.15,2013-01-07 13:24:00,
2013-01-07 08:29:00,30.6,28.8,30.32,NE,55,0.0,0.0,93,0.00,,,0.00,Wunderground v.1.15,2013-01-07 13:29:00,
2013-01-07 08:34:00,30.5,28.7,30.32,NE,55,0.0,0.0,93,0.00,,,0.00,Wunderground v.1.15,2013-01-07 13:34:00,
2013-01-07 08:39:00,30.4,28.6,30.32,NE,55,0.0,0.0,93,0.00,,,0.00,Wunderground v.1.15,2013-01-07 13:39:00,
2013-01-07 08:44:00,30.4,28.6,30.33,NE,55,0.0,0.0,93,0.00,,,0.00,Wunderground v.1.15,2013-01-07 13:44:00,
2013-01-07 08:49:00,30.4,28.9,30.33,NE,55,0.0,0.0,94,0.00,,,0.00,Wunderground v.1.15,2013-01-07 13:49:00,
2013-01-07 08:54:00,30.6,29.1,30.33,NE,55,0.0,0.0,94,0.00,,,0.00,Wunderground v.1.15,2013-01-07 13:54:00,
2013-01-07 08:59:00,30.8,29.3,30.33,NE,55,0.0,0.0,94,0.00,,,0.00,Wunderground v.1.15,2013-01-07 13:59:00,
2013-01-07 09:04:00,31.1,29.6,30.33,NE,55,0.0,0.0,94,0.00,,,0.00,Wunderground v.1.15,2013-01-07 14:04:00,
2013-01-07 09:10:00,31.6,30.3,30.34,NE,55,0.0,0.0,95,0.00,,,0.00,Wunderground v.1.15,2013-01-07 14:10:00,
2013-01-07 09:15:00,32.4,31.1,30.34,NE,55,0.0,0.0,95,0.00,,,0.01,Wunderground v.1.15,2013-01-07 14:15:00,
2013-01-07 09:20:00,33.3,32.0,30.35,NE,55,0.0,0.0,95,0.00,,,0.01,Wunderground v.1.15,2013-01-07 14:20:00,
2013-01-07 09:25:00,34.3,33.0,30.35,NE,55,0.0,0.0,95,0.00,,,0.01,Wunderground v.1.15,2013-01-07 14:25:00,
2013-01-07 09:30:00,35.3,33.7,30.35,NE,55,0.0,0.0,94,0.00,,,0.01,Wunderground v.1.15,2013-01-07 14:30:00,
2013-01-07 09:35:00,36.2,34.6,30.36,NE,55,0.0,0.0,94,0.00,,,0.01,Wunderground v.1.15,2013-01-07 14:35:00,
2013-01-07 09:40:00,36.9,34.8,30.36,NE,55,0.0,0.0,92,0.00,,,0.01,Wunderground v.1.15,2013-01-07 14:40:00,
2013-01-07 09:45:00,37.8,35.4,30.36,NE,55,0.0,0.0,91,0.00,,,0.01,Wunderground v.1.15,2013-01-07 14:45:00,
2013-01-07 09:50:00,38.6,35.9,30.36,NE,55,0.0,0.0,90,0.00,,,0.01,Wunderground v.1.15,2013-01-07 14:50:00,
2013-01-07 09:55:00,39.6,35.5,30.36,East,90,4.0,4.0,85,0.00,,,0.01,Wunderground v.1.15,2013-01-07 14:55:00,
2013-01-07 10:00:00,40.6,35.2,30.36,East,81,2.0,5.0,81,0.00,,,0.01,Wunderground v.1.15,2013-01-07 15:00:00,
2013-01-07 10:05:00,41.6,35.9,30.37,ENE,74,4.0,4.0,80,0.00,,,0.01,Wunderground v.1.15,2013-01-07 15:05:00,
2013-01-07 10:10:00,42.3,35.6,30.37,ENE,62,3.0,5.0,77,0.00,,,0.02,Wunderground v.1.15,2013-01-07 15:10:00,
2013-01-07 10:15:00,42.9,36.2,30.38,East,88,3.0,5.0,77,0.00,,,0.02,Wunderground v.1.15,2013-01-07 15:15:00,
2013-01-07 10:20:00,43.6,36.2,30.38,East,85,0.0,5.0,75,0.00,,,0.02,Wunderground v.1.15,2013-01-07 15:20:00,
2013-01-07 10:25:00,44.6,36.5,30.38,SW,215,0.0,3.0,73,0.00,,,0.02,Wunderground v.1.15,2013-01-07 15:25:00,
2013-01-07 10:30:00,45.5,35.9,30.38,South,178,2.0,4.0,69,0.00,,,0.02,Wunderground v.1.15,2013-01-07 15:30:00,
2013-01-07 10:35:00,46.2,35.8,30.38,East,94,4.0,4.0,67,0.00,,,0.02,Wunderground v.1.15,2013-01-07 15:35:00,
2013-01-07 10:40:00,46.4,35.3,30.38,ESE,117,0.0,5.0,65,0.00,,,0.02,Wunderground v.1.15,2013-01-07 15:40:00,
2013-01-07 10:45:00,46.5,35.4,30.38,East,90,2.0,5.0,65,0.00,,,0.02,Wunderground v.1.15,2013-01-07 15:45:00,
2013-01-07 10:50:00,46.9,35.4,30.38,ENE,77,0.0,5.0,64,0.00,,,0.02,Wunderground v.1.15,2013-01-07 15:50:00,
2013-01-07 10:55:00,47.5,35.9,30.38,NNE,28,0.0,3.0,64,0.00,,,0.02,Wunderground v.1.15,2013-01-07 15:55:00,
2013-01-07 11:00:00,47.9,35.5,30.38,NE,34,0.0,3.0,62,0.00,,,0.02,Wunderground v.1.15,2013-01-07 16:00:00,
2013-01-07 11:05:00,48.6,35.7,30.38,ENE,77,2.0,6.0,61,0.00,,,0.02,Wunderground v.1.15,2013-01-07 16:05:00,
2013-01-07 11:10:00,49.0,35.3,30.38,East,84,0.0,1.0,59,0.00,,,0.02,Wunderground v.1.15,2013-01-07 16:10:00,
2013-01-07 11:15:00,49.5,34.0,30.38,ESE,105,1.0,7.0,55,0.00,,,0.02,Wunderground v.1.15,2013-01-07 16:15:00,
2013-01-07 11:20:00,49.5,33.5,30.38,ENE,72,3.0,3.0,54,0.00,,,0.02,Wunderground v.1.15,2013-01-07 16:20:00,
2013-01-07 11:25:00,49.6,33.2,30.38,ESE,119,5.0,7.0,53,0.00,,,0.02,Wunderground v.1.15,2013-01-07 16:25:00,
2013-01-07 11:30:00,49.9,33.9,30.38,ESE,113,0.0,2.0,54,0.00,,,0.02,Wunderground v.1.15,2013-01-07 16:30:00,
2013-01-07 11:35:00,50.4,33.9,30.37,ESE,103,1.0,4.0,53,0.00,,,0.02,Wunderground v.1.15,2013-01-07 16:35:00,
2013-01-07 11:40:00,50.7,33.7,30.37,East,82,3.0,4.0,52,0.00,,,0.03,Wunderground v.1.15,2013-01-07 16:40:00,
2013-01-07 11:46:00,50.4,33.9,30.37,East,82,0.0,6.0,53,0.00,,,0.03,Wunderground v.1.15,2013-01-07 16:46:00,
2013-01-07 11:51:00,50.6,34.1,30.37,East,81,5.0,6.0,53,0.00,,,0.03,Wunderground v.1.15,2013-01-07 16:51:00,
2013-01-07 11:56:00,50.7,34.2,30.36,SSE,161,4.0,7.0,53,0.00,,,0.03,Wunderground v.1.15,2013-01-07 16:56:00,
2013-01-07 12:01:00,51.0,34.5,30.36,East,79,0.0,3.0,53,0.00,,,0.03,Wunderground v.1.15,2013-01-07 17:01:00,
2013-01-07 12:06:00,51.5,34.4,30.36,South,184,2.0,5.0,52,0.00,,,0.03,Wunderground v.1.15,2013-01-07 17:06:00,
2013-01-07 12:11:00,52.1,35.5,30.35,ENE,65,2.0,3.0,53,0.00,,,0.03,Wunderground v.1.15,2013-01-07 17:11:00,
2013-01-07 12:16:00,52.2,35.6,30.34,SE,125,2.0,5.0,53,0.00,,,0.03,Wunderground v.1.15,2013-01-07 17:16:00,
2013-01-07 12:21:00,52.4,35.3,30.35,SSE,161,2.0,4.0,52,0.00,,,0.03,Wunderground v.1.15,2013-01-07 17:21:00,
2013-01-07 12:26:00,52.5,33.9,30.34,South,171,2.0,6.0,49,0.00,,,0.03,Wunderground v.1.15,2013-01-07 17:26:00,
2013-01-07 12:31:00,52.7,34.1,30.34,ENE,71,3.0,3.0,49,0.00,,,0.03,Wunderground v.1.15,2013-01-07 17:31:00,
2013-01-07 12:36:00,53.0,34.3,30.33,SW,235,0.0,3.0,49,0.00,,,0.03,Wunderground v.1.15,2013-01-07 17:36:00,
2013-01-07 12:41:00,53.5,33.7,30.33,South,173,5.0,7.0,47,0.00,,,0.03,Wunderground v.1.15,2013-01-07 17:41:00,
2013-01-07 12:46:00,53.5,34.8,30.33,SE,126,0.0,8.0,49,0.00,,,0.03,Wunderground v.1.15,2013-01-07 17:46:00,
2013-01-07 12:51:00,53.4,34.2,30.33,ENE,78,5.0,5.0,48,0.00,,,0.03,Wunderground v.1.15,2013-01-07 17:51:00,
2013-01-07 12:56:00,53.2,34.0,30.32,East,89,0.0,7.0,48,0.00,,,0.03,Wunderground v.1.15,2013-01-07 17:56:00,
2013-01-07 13:01:00,53.3,34.6,30.32,NE,52,4.0,4.0,49,0.00,,,0.03,Wunderground v.1.15,2013-01-07 18:01:00,
2013-01-07 13:06:00,53.3,33.6,30.32,East,82,4.0,6.0,47,0.00,,,0.03,Wunderground v.1.15,2013-01-07 18:06:00,
2013-01-07 13:11:00,53.5,34.8,30.32,NE,52,3.0,4.0,49,0.00,,,0.03,Wunderground v.1.15,2013-01-07 18:11:00,
2013-01-07 13:16:00,53.6,34.4,30.32,ENE,74,3.0,5.0,48,0.00,,,0.03,Wunderground v.1.15,2013-01-07 18:16:00,
2013-01-07 13:21:00,53.9,34.1,30.32,ENE,78,1.0,4.0,47,0.00,,,0.03,Wunderground v.1.15,2013-01-07 18:21:00,
2013-01-07 13:26:00,54.2,34.4,30.31,East,80,1.0,4.0,47,0.00,,,0.03,Wunderground v.1.15,2013-01-07 18:26:00,
2013-01-07 13:31:00,54.8,34.4,30.31,SE,138,0.0,6.0,46,0.00,,,0.03,Wunderground v.1.15,2013-01-07 18:31:00,
2013-01-07 13:36:00,55.0,34.0,30.31,East,84,2.0,7.0,45,0.00,,,0.03,Wunderground v.1.15,2013-01-07 18:36:00,
2013-01-07 13:41:00,54.7,34.3,30.31,ENE,78,2.0,3.0,46,0.00,,,0.03,Wunderground v.1.15,2013-01-07 18:41:00,
2013-01-07 13:46:00,55.1,34.1,30.30,SSE,148,0.0,5.0,45,0.00,,,0.03,Wunderground v.1.15,2013-01-07 18:46:00,
2013-01-07 13:51:00,55.8,34.8,30.30,South,171,0.0,2.0,45,0.00,,,0.03,Wunderground v.1.15,2013-01-07 18:51:00,
2013-01-07 13:56:00,56.1,34.5,30.30,ENE,73,4.0,7.0,44,0.00,,,0.03,Wunderground v.1.15,2013-01-07 18:56:00,
2013-01-07 14:01:00,55.7,33.5,30.31,East,92,2.0,6.0,43,0.00,,,0.03,Wunderground v.1.15,2013-01-07 19:01:00,
2013-01-07 14:06:00,55.5,33.9,30.30,NE,42,0.0,6.0,44,0.00,,,0.03,Wunderground v.1.15,2013-01-07 19:06:00,
2013-01-07 14:11:00,55.5,33.9,30.30,ENE,69,3.0,3.0,44,0.00,,,0.03,Wunderground v.1.15,2013-01-07 19:11:00,
2013-01-07 14:16:00,55.1,33.0,30.30,ENE,67,5.0,7.0,43,0.00,,,0.03,Wunderground v.1.15,2013-01-07 19:16:00,
2013-01-07 14:22:00,54.4,32.9,30.30,ENE,75,2.0,4.0,44,0.00,,,0.03,Wunderground v.1.15,2013-01-07 19:22:00,
2013-01-07 14:27:00,54.4,32.9,30.30,East,84,3.0,6.0,44,0.00,,,0.03,Wunderground v.1.15,2013-01-07 19:27:00,
2013-01-07 14:32:00,54.6,33.1,30.29,East,87,0.0,4.0,44,0.00,,,0.03,Wunderground v.1.15,2013-01-07 19:32:00,
2013-01-07 14:37:00,55.0,33.5,30.29,East,84,1.0,4.0,44,0.00,,,0.03,Wunderground v.1.15,2013-01-07 19:37:00,
2013-01-07 14:42:00,55.0,32.9,30.30,East,87,1.0,5.0,43,0.00,,,0.03,Wunderground v.1.15,2013-01-07 19:42:00,
2013-01-07 14:47:00,54.8,33.3,30.29,East,80,3.0,5.0,44,0.00,,,0.03,Wunderground v.1.15,2013-01-07 19:47:00,
2013-01-07 14:52:00,54.8,33.3,30.29,East,86,0.0,3.0,44,0.00,,,0.03,Wunderground v.1.15,2013-01-07 19:52:00,
2013-01-07 14:57:00,54.8,32.7,30.29,ENE,69,3.0,8.0,43,0.00,,,0.03,Wunderground v.1.15,2013-01-07 19:57:00,
2013-01-07 15:02:00,54.8,32.7,30.29,ENE,76,4.0,6.0,43,0.00,,,0.03,Wunderground v.1.15,2013-01-07 20:02:00,
2013-01-07 15:07:00,54.6,32.5,30.30,ENE,77,0.0,7.0,43,0.00,,,0.03,Wunderground v.1.15,2013-01-07 20:07:00,
2013-01-07 15:12:00,55.0,33.5,30.30,East,92,0.0,3.0,44,0.00,,,0.03,Wunderground v.1.15,2013-01-07 20:12:00,
2013-01-07 15:17:00,55.3,33.7,30.30,ESE,105,0.0,6.0,44,0.00,,,0.03,Wunderground v.1.15,2013-01-07 20:17:00,
2013-01-07 15:22:00,55.5,33.3,30.30,ESE,103,0.0,1.0,43,0.00,,,0.03,Wunderground v.1.15,2013-01-07 20:22:00,
2013-01-07 15:27:00,55.1,33.0,30.30,South,186,0.0,6.0,43,0.00,,,0.03,Wunderground v.1.15,2013-01-07 20:27:00,
2013-01-07 15:32:00,54.9,32.8,30.31,ENE,65,1.0,3.0,43,0.00,,,0.03,Wunderground v.1.15,2013-01-07 20:32:00,
2013-01-07 15:37:00,54.8,32.7,30.31,East,85,0.0,4.0,43,0.00,,,0.03,Wunderground v.1.15,2013-01-07 20:37:00,
2013-01-07 15:42:00,54.9,33.4,30.31,SSW,198,0.0,5.0,44,0.00,,,0.03,Wunderground v.1.15,2013-01-07 20:42:00,
2013-01-07 15:47:00,55.3,33.7,30.31,SSW,198,0.0,5.0,44,0.00,,,0.03,Wunderground v.1.15,2013-01-07 20:47:00,
2013-01-07 15:52:00,55.6,34.0,30.32,SSW,198,1.0,4.0,44,0.00,,,0.03,Wunderground v.1.15,2013-01-07 20:52:00,
2013-01-07 15:57:00,55.6,34.0,30.32,SSW,197,0.0,4.0,44,0.00,,,0.03,Wunderground v.1.15,2013-01-07 20:57:00,
2013-01-07 16:02:00,55.2,33.6,30.32,East,100,0.0,1.0,44,0.00,,,0.03,Wunderground v.1.15,2013-01-07 21:02:00,
2013-01-07 16:07:00,54.9,33.9,30.32,East,82,1.0,3.0,45,0.00,,,0.03,Wunderground v.1.15,2013-01-07 21:07:00,
2013-01-07 16:12:00,54.2,33.3,30.32,East,80,0.0,2.0,45,0.00,,,0.03,Wunderground v.1.15,2013-01-07 21:12:00,
2013-01-07 16:17:00,53.9,34.1,30.32,East,80,0.0,2.0,47,0.00,,,0.03,Wunderground v.1.15,2013-01-07 21:17:00,
2013-01-07 16:22:00,53.8,34.0,30.32,East,88,1.0,3.0,47,0.00,,,0.03,Wunderground v.1.15,2013-01-07 21:22:00,
2013-01-07 16:27:00,53.6,33.8,30.32,East,98,2.0,4.0,47,0.00,,,0.03,Wunderground v.1.15,2013-01-07 21:27:00,
2013-01-07 16:32:00,53.4,33.1,30.32,East,84,0.0,3.0,46,0.00,,,0.03,Wunderground v.1.15,2013-01-07 21:32:00,
2013-01-07 16:37:00,53.3,33.6,30.32,East,84,0.0,3.0,47,0.00,,,0.03,Wunderground v.1.15,2013-01-07 21:37:00,
2013-01-07 16:42:00,53.3,34.1,30.33,East,84,0.0,0.0,48,0.00,,,0.04,Wunderground v.1.15,2013-01-07 21:42:00,
2013-01-07 16:47:00,53.2,33.5,30.32,East,84,0.0,2.0,47,0.00,,,0.04,Wunderground v.1.15,2013-01-07 21:47:00,
2013-01-07 16:52:00,53.1,33.9,30.33,East,84,0.0,0.0,48,0.00,,,0.04,Wunderground v.1.15,2013-01-07 21:52:00,
2013-01-07 16:57:00,53.0,33.8,30.32,East,84,0.0,0.0,48,0.00,,,0.04,Wunderground v.1.15,2013-01-07 21:57:00,
2013-01-07 17:02:00,52.8,33.6,30.32,East,84,0.0,0.0,48,0.00,,,0.04,Wunderground v.1.15,2013-01-07 22:02:00,
2013-01-07 17:08:00,52.6,33.5,30.33,East,84,0.0,0.0,48,0.00,,,0.04,Wunderground v.1.15,2013-01-07 22:08:00,
2013-01-07 17:13:00,52.5,33.9,30.33,East,84,0.0,0.0,49,0.00,,,0.04,Wunderground v.1.15,2013-01-07 22:13:00,
2013-01-07 17:18:00,52.3,34.2,30.33,East,84,0.0,0.0,50,0.00,,,0.04,Wunderground v.1.15,2013-01-07 22:18:00,
2013-01-07 17:23:00,52.1,34.0,30.33,East,84,0.0,0.0,50,0.00,,,0.04,Wunderground v.1.15,2013-01-07 22:23:00,
2013-01-07 17:28:00,51.9,33.8,30.33,East,84,0.0,0.0,50,0.00,,,0.04,Wunderground v.1.15,2013-01-07 22:28:00,
2013-01-07 17:33:00,51.7,34.1,30.33,East,84,0.0,0.0,51,0.00,,,0.04,Wunderground v.1.15,2013-01-07 22:33:00,
2013-01-07 17:38:00,51.4,34.3,30.33,East,84,0.0,0.0,52,0.00,,,0.04,Wunderground v.1.15,2013-01-07 22:38:00,
2013-01-07 17:43:00,51.2,34.2,30.33,East,84,0.0,0.0,52,0.00,,,0.04,Wunderground v.1.15,2013-01-07 22:43:00,
2013-01-07 17:48:00,50.8,34.3,30.33,East,84,0.0,0.0,53,0.00,,,0.04,Wunderground v.1.15,2013-01-07 22:48:00,
2013-01-07 17:53:00,50.5,34.5,30.33,East,84,0.0,0.0,54,0.00,,,0.04,Wunderground v.1.15,2013-01-07 22:53:00,
2013-01-07 17:58:00,50.1,34.5,30.33,East,84,0.0,0.0,55,0.00,,,0.04,Wunderground v.1.15,2013-01-07 22:58:00,
2013-01-07 18:03:00,49.8,34.7,30.33,East,84,0.0,0.0,56,0.00,,,0.04,Wunderground v.1.15,2013-01-07 23:03:00,
2013-01-07 18:08:00,49.5,35.3,30.34,East,84,0.0,0.0,58,0.00,,,0.04,Wunderground v.1.15,2013-01-07 23:08:00,
2013-01-07 18:13:00,49.0,34.9,30.34,East,84,0.0,0.0,58,0.00,,,0.04,Wunderground v.1.15,2013-01-07 23:13:00,
2013-01-07 18:18:00,48.5,34.4,30.34,East,84,0.0,0.0,58,0.00,,,0.04,Wunderground v.1.15,2013-01-07 23:18:00,
2013-01-07 18:23:00,48.2,34.1,30.34,East,84,0.0,0.0,58,0.00,,,0.04,Wunderground v.1.15,2013-01-07 23:23:00,
2013-01-07 18:28:00,48.0,34.3,30.34,East,84,0.0,0.0,59,0.00,,,0.04,Wunderground v.1.15,2013-01-07 23:28:00,
2013-01-07 18:33:00,47.6,35.2,30.35,East,84,0.0,0.0,62,0.00,,,0.04,Wunderground v.1.15,2013-01-07 23:33:00,
2013-01-07 18:38:00,47.1,35.5,30.34,East,84,0.0,0.0,64,0.00,,,0.04,Wunderground v.1.15,2013-01-07 23:38:00,
2013-01-07 18:43:00,46.7,35.6,30.35,East,84,0.0,0.0,65,0.00,,,0.04,Wunderground v.1.15,2013-01-07 23:43:00,
2013-01-07 18:48:00,46.2,35.1,30.35,East,84,0.0,0.0,65,0.00,,,0.04,Wunderground v.1.15,2013-01-07 23:48:00,
2013-01-07 18:53:00,45.8,35.1,30.34,East,84,0.0,0.0,66,0.00,,,0.04,Wunderground v.1.15,2013-01-07 23:53:00,
2013-01-07 18:58:00,45.4,34.3,30.35,East,84,0.0,0.0,65,0.00,,,0.04,Wunderground v.1.15,2013-01-07 23:58:00,
2013-01-07 19:03:00,45.3,34.2,30.35,East,84,0.0,0.0,65,0.00,,,0.04,Wunderground v.1.15,2013-01-08 00:03:00,
2013-01-07 19:08:00,45.2,34.5,30.35,East,84,0.0,0.0,66,0.00,,,0.04,Wunderground v.1.15,2013-01-08 00:08:00,
2013-01-07 19:13:00,45.1,34.8,30.35,East,84,0.0,0.0,67,0.00,,,0.04,Wunderground v.1.15,2013-01-08 00:13:00,
2013-01-07 19:18:00,45.1,34.4,30.34,East,84,0.0,0.0,66,0.00,,,0.04,Wunderground v.1.15,2013-01-08 00:18:00,
2013-01-07 19:23:00,45.1,34.0,30.35,East,84,0.0,0.0,65,0.00,,,0.04,Wunderground v.1.15,2013-01-08 00:23:00,
2013-01-07 19:28:00,45.1,34.0,30.34,East,84,0.0,0.0,65,0.00,,,0.04,Wunderground v.1.15,2013-01-08 00:28:00,
2013-01-07 19:33:00,45.2,34.1,30.33,East,84,0.0,0.0,65,0.00,,,0.04,Wunderground v.1.15,2013-01-08 00:33:00,
2013-01-07 19:38:00,45.3,34.2,30.33,East,84,0.0,0.0,65,0.00,,,0.04,Wunderground v.1.15,2013-01-08 00:38:00,
2013-01-07 19:44:00,45.3,34.2,30.33,East,84,0.0,0.0,65,0.00,,,0.04,Wunderground v.1.15,2013-01-08 00:44:00,
2013-01-07 19:49:00,45.3,34.2,30.34,East,84,0.0,0.0,65,0.00,,,0.04,Wunderground v.1.15,2013-01-08 00:49:00,
2013-01-07 19:54:00,45.2,34.1,30.34,East,84,0.0,0.0,65,0.00,,,0.04,Wunderground v.1.15,2013-01-08 00:54:00,
2013-01-07 19:59:00,45.1,34.0,30.34,East,84,0.0,0.0,65,0.00,,,0.04,Wunderground v.1.15,2013-01-08 00:59:00,
2013-01-07 20:04:00,45.1,34.0,30.34,East,84,0.0,0.0,65,0.00,,,0.04,Wunderground v.1.15,2013-01-08 01:04:00,
2013-01-07 20:09:00,44.9,33.8,30.34,East,84,0.0,0.0,65,0.00,,,0.04,Wunderground v.1.15,2013-01-08 01:09:00,
2013-01-07 20:14:00,44.8,33.7,30.35,East,84,0.0,0.0,65,0.00,,,0.04,Wunderground v.1.15,2013-01-08 01:14:00,
2013-01-07 20:19:00,44.6,33.9,30.34,East,84,0.0,0.0,66,0.00,,,0.04,Wunderground v.1.15,2013-01-08 01:19:00,
2013-01-07 20:24:00,44.4,33.7,30.34,East,84,0.0,0.0,66,0.00,,,0.04,Wunderground v.1.15,2013-01-08 01:24:00,
2013-01-07 20:29:00,44.2,33.9,30.35,East,84,0.0,0.0,67,0.00,,,0.04,Wunderground v.1.15,2013-01-08 01:29:00,
2013-01-07 20:34:00,44.1,33.8,30.34,East,84,0.0,0.0,67,0.00,,,0.04,Wunderground v.1.15,2013-01-08 01:34:00,
2013-01-07 20:39:00,44.0,34.1,30.34,East,84,0.0,0.0,68,0.00,,,0.04,Wunderground v.1.15,2013-01-08 01:39:00,
2013-01-07 20:44:00,44.0,34.1,30.35,East,84,0.0,0.0,68,0.00,,,0.04,Wunderground v.1.15,2013-01-08 01:44:00,
2013-01-07 20:49:00,44.0,34.1,30.34,East,84,0.0,0.0,68,0.00,,,0.04,Wunderground v.1.15,2013-01-08 01:49:00,
2013-01-07 20:54:00,44.0,34.1,30.34,East,84,0.0,0.0,68,0.00,,,0.04,Wunderground v.1.15,2013-01-08 01:54:00,
2013-01-07 20:59:00,43.9,34.0,30.34,East,84,0.0,0.0,68,0.00,,,0.04,Wunderground v.1.15,2013-01-08 01:59:00,
2013-01-07 21:04:00,43.4,33.9,30.34,East,84,0.0,0.0,69,0.00,,,0.04,Wunderground v.1.15,2013-01-08 02:04:00,
2013-01-07 21:09:00,43.0,33.9,30.34,East,84,0.0,0.0,70,0.00,,,0.04,Wunderground v.1.15,2013-01-08 02:09:00,
2013-01-07 21:14:00,42.5,33.8,30.34,East,84,0.0,0.0,71,0.00,,,0.04,Wunderground v.1.15,2013-01-08 02:14:00,
2013-01-07 21:19:00,42.2,33.5,30.34,East,84,0.0,0.0,71,0.00,,,0.04,Wunderground v.1.15,2013-01-08 02:19:00,
2013-01-07 21:24:00,42.1,33.7,30.35,East,84,0.0,0.0,72,0.00,,,0.04,Wunderground v.1.15,2013-01-08 02:24:00,
2013-01-07 21:29:00,41.7,33.3,30.35,East,84,0.0,0.0,72,0.00,,,0.04,Wunderground v.1.15,2013-01-08 02:29:00,
2013-01-07 21:34:00,40.9,32.9,30.35,East,84,0.0,0.0,73,0.00,,,0.04,Wunderground v.1.15,2013-01-08 02:34:00,
2013-01-07 21:39:00,39.8,32.2,30.35,East,84,0.0,0.0,74,0.00,,,0.04,Wunderground v.1.15,2013-01-08 02:39:00,
2013-01-07 21:44:00,39.0,32.1,30.35,East,84,0.0,0.0,76,0.00,,,0.04,Wunderground v.1.15,2013-01-08 02:44:00,
2013-01-07 21:49:00,38.4,32.1,30.36,East,84,0.0,0.0,78,0.00,,,0.04,Wunderground v.1.15,2013-01-08 02:49:00,
2013-01-07 21:54:00,38.0,32.1,30.35,East,84,0.0,0.0,79,0.00,,,0.04,Wunderground v.1.15,2013-01-08 02:54:00,
2013-01-07 21:59:00,37.9,32.3,30.35,East,84,0.0,0.0,80,0.00,,,0.04,Wunderground v.1.15,2013-01-08 02:59:00,
2013-01-07 22:04:00,38.0,32.7,30.35,East,84,0.0,0.0,81,0.00,,,0.04,Wunderground v.1.15,2013-01-08 03:04:00,
2013-01-07 22:09:00,37.8,32.2,30.36,East,84,0.0,0.0,80,0.00,,,0.04,Wunderground v.1.15,2013-01-08 03:09:00,
2013-01-07 22:14:00,37.3,31.4,30.35,East,84,0.0,0.0,79,0.00,,,0.04,Wunderground v.1.15,2013-01-08 03:14:00,
2013-01-07 22:19:00,36.4,30.8,30.36,East,84,0.0,0.0,80,0.00,,,0.04,Wunderground v.1.15,2013-01-08 03:19:00,
2013-01-07 22:25:00,35.7,30.7,30.36,East,84,0.0,0.0,82,0.00,,,0.04,Wunderground v.1.15,2013-01-08 03:25:00,
2013-01-07 22:30:00,35.1,30.5,30.36,East,84,0.0,0.0,83,0.00,,,0.04,Wunderground v.1.15,2013-01-08 03:30:00,
2013-01-07 22:35:00,34.7,30.4,30.36,East,84,0.0,0.0,84,0.00,,,0.04,Wunderground v.1.15,2013-01-08 03:35:00,
2013-01-07 22:40:00,34.6,30.6,30.36,East,84,0.0,0.0,85,0.00,,,0.04,Wunderground v.1.15,2013-01-08 03:40:00,
2013-01-07 22:45:00,34.6,30.6,30.37,East,84,0.0,0.0,85,0.00,,,0.04,Wunderground v.1.15,2013-01-08 03:45:00,
2013-01-07 22:50:00,34.5,30.5,30.37,East,84,0.0,0.0,85,0.00,,,0.04,Wunderground v.1.15,2013-01-08 03:50:00,
2013-01-07 22:55:00,34.4,30.4,30.37,East,84,0.0,0.0,85,0.00,,,0.04,Wunderground v.1.15,2013-01-08 03:55:00,
2013-01-07 23:00:00,34.4,30.6,30.36,East,84,0.0,0.0,86,0.00,,,0.04,Wunderground v.1.15,2013-01-08 04:00:00,
2013-01-07 23:06:00,34.1,30.4,30.37,East,84,0.0,0.0,86,0.00,,,0.04,Wunderground v.1.15,2013-01-08 04:06:00,
2013-01-07 23:11:00,33.8,30.1,30.37,East,84,0.0,0.0,86,0.00,,,0.04,Wunderground v.1.15,2013-01-08 04:11:00,
2013-01-07 23:16:00,33.5,30.0,30.36,East,84,0.0,0.0,87,0.00,,,0.04,Wunderground v.1.15,2013-01-08 04:16:00,
2013-01-07 23:21:00,33.4,30.2,30.36,East,84,0.0,0.0,88,0.00,,,0.04,Wunderground v.1.15,2013-01-08 04:21:00,
2013-01-07 23:26:00,33.2,30.0,30.36,East,84,0.0,0.0,88,0.00,,,0.04,Wunderground v.1.15,2013-01-08 04:26:00,
2013-01-07 23:31:00,33.1,29.9,30.35,East,84,0.0,0.0,88,0.00,,,0.04,Wunderground v.1.15,2013-01-08 04:31:00,
2013-01-07 23:36:00,33.1,30.2,30.36,East,84,0.0,0.0,89,0.00,,,0.04,Wunderground v.1.15,2013-01-08 04:36:00,
2013-01-07 23:41:00,33.1,29.9,30.36,East,84,0.0,0.0,88,0.00,,,0.04,Wunderground v.1.15,2013-01-08 04:41:00,
2013-01-07 23:46:00,32.9,29.5,30.36,East,84,0.0,0.0,87,0.00,,,0.04,Wunderground v.1.15,2013-01-08 04:46:00,
2013-01-07 23:49:00,43.5,41.6,29.92,NE,42,4.0,8.0,93,0.05,,,0.94,Wunderground v.1.15,2013-01-08 04:49:00,
2013-01-07 23:50:00,43.6,41.7,29.92,NE,50,5.0,5.0,93,0.05,,,0.94,Wunderground v.1.15,2013-01-08 04:50:00,
2013-01-07 23:51:00,32.6,29.2,30.36,East,84,0.0,0.0,87,0.00,,,0.04,Wunderground v.1.15,2013-01-08 04:51:00,
2013-01-07 23:52:00,43.6,41.7,29.92,NE,55,3.0,7.0,93,0.06,,,0.95,Wunderground v.1.15,2013-01-08 04:52:00,
2013-01-07 23:53:00,43.6,41.7,29.92,NE,47,4.0,7.0,93,0.06,,,0.95,Wunderground v.1.15,2013-01-08 04:53:00,
2013-01-07 23:54:00,43.5,41.6,29.92,NE,55,3.0,10.0,93,0.06,,,0.95,Wunderground v.1.15,2013-01-08 04:54:00,
2013-01-07 23:55:00,43.6,41.7,29.92,ENE,66,6.0,10.0,93,0.06,,,0.00,Wunderground v.1.15,2013-01-08 04:55:00,
2013-01-07 23:56:00,32.3,28.9,30.36,East,84,0.0,0.0,87,0.00,,,0.04,Wunderground v.1.15,2013-01-08 04:56:00,